Wind_Speed
27 28 21 29 26 27 23 18 10 8 15 24 26 20 19 16 24 20 22 16 14 13 13 13 15 17 15 13 13 14 17 21 23 24 24 23 21 21 21 22 23 24 24 24 22 21 20 20 20
21 26 28 22 24 22 21 12 3 12 20 25 23 15 17 22 22 14 14 13 10 10 10 10 10 10 11 11 11 12 14 18 22 23 24 23 22 21 21 22 23 24 24 24 23 23 23 23 24
23 23 25 26 25 24 20 13 11 18 21 27 28 28 23 15 18 19 7 11 10 9 6 5 6 6 7 7 7 8 10 13 16 19 21 22 22 23 22 23 23 24 25 25 26 25 26 25 26
21 21 22 24 24 19 16 13 17 24 25 26 9 19 14 22 23 15 9 5 7 8 5 1 2 4 5 6 7 9 9 11 11 13 14 16 19 20 20 22 23 24 25 26 27 27 26 26 25
22 22 20 20 18 5 12 7 19 26 28 17 18 11 19 21 23 27 25 11 11 4 1 6 7 8 8 9 10 11 12 13 14 15 15 16 16 16 17 18 19 22 22 24 25 25 25 25 24
24 24 19 20 9 17 20 14 25 27 29 32 25 16 22 24 23 21 8 4 7 13 15 7 2 3 3 5 9 13 16 17 18 19 18 18 18 17 18 19 20 21 22 22 23 23 24 23 23
15 25 23 12 11 16 20 17 24 31 32 36 14 21 21 20 15 12 16 23 11 29 22 13 2 4 8 10 8 13 17 20 21 22 21 19 19 19 19 20 21 22 22 22 24 24 24 24 24
18 23 19 14 14 18 24 24 25 26 29 34 33 31 21 23 18 15 28 38 31 29 26 11 20 13 13 11 7 11 14 19 21 22 27 26 24 23 21 22 20 20 21 22 22 23 24 24 24
18 18 12 8 18 21 30 24 31 32 30 30 28 10 17 26 37 34 34 29 40 39 41 25 26 26 26 16 1 8 14 17 19 19 24 28 27 17 17 18 19 19 21 21 21 21 22 22 22
15 13 3 12 19 27 36 41 38 30 29 31 18 16 25 28 28 31 34 40 43 40 39 28 26 24 11 12 5 17 23 26 20 31 28 29 27 23 17 19 24 22 21 19 23 24 22 22 22
7 4 9 21 24 26 36 40 38 27 27 28 25 26 25 27 30 32 36 36 45 31 32 28 22 22 25 26 31 27 28 27 25 31 37 28 22 16 17 23 23 23 17 21 26 27 26 26 25
6 4 12 19 23 19 26 29 22 19 21 19 19 18 22 26 30 32 32 35 37 26 29 22 20 26 29 29 27 28 28 27 24 24 26 10 20 16 12 20 25 14 20 23 26 27 28 28 30
2 8 8 17 20 21 26 23 13 15 9 9 15 22 23 25 25 26 24 29 31 27 24 22 22 22 25 31 32 34 37 37 27 20 15 15 19 18 22 25 30 25 27 29 27 28 29 31 27
1 9 14 17 20 25 25 31 21 11 7 5 11 17 20 25 27 26 26 23 22 21 24 23 23 24 30 32 35 36 35 36 33 26 23 23 22 28 29 25 27 30 28 32 31 30 30 34 36
9 10 10 8 20 21 28 22 21 11 9 6 5 18 23 25 24 28 31 31 28 26 26 26 28 30 33 38 40 38 39 32 31 29 25 24 27 26 27 26 29 39 32 34 32 34 35 35 34
20 20 19 7 18 28 32 22 34 11 4 8 11 13 16 22 28 30 33 33 33 34 33 33 33 35 38 40 44 44 41 41 35 26 24 27 27 28 27 27 29 31 34 37 36 36 37 37 37
17 21 20 8 18 25 23 28 31 21 6 11 18 20 23 25 26 28 30 33 37 37 38 39 40 39 40 42 44 45 43 40 42 39 33 28 30 32 31 32 33 34 35 35 36 37 37 38 41
16 23 19 22 21 25 33 38 46 35 12 10 17 25 31 33 29 31 28 41 40 40 43 43 45 43 45 47 44 43 42 46 43 44 44 40 38 37 35 34 37 37 38 38 39 39 41 43 41
9 3 14 17 25 27 26 35 32 39 29 28 11 16 41 36 33 21 38 40 40 46 47 48 50 47 49 45 43 42 46 46 47 47 48 46 46 45 43 41 40 40 39 39 41 41 42 45 46
5 7 14 17 22 28 36 24 30 33 28 28 20 27 31 34 25 36 45 44 39 38 39 42 46 48 47 51 51 50 50 52 53 53 51 51 50 49 47 47 46 46 45 46 45 46 45 46 48
5 8 13 18 27 35 22 28 25 25 31 21 26 37 29 38 42 43 47 48 50 50 53 53 53 56 58 59 61 62 60 59 58 56 53 52 48 47 46 44 44 45 46 46 47 48 49 47 49
12 14 19 17 19 17 19 30 31 30 34 30 36 36 28 45 54 53 53 51 54 56 54 49 45 45 46 47 47 48 49 51 51 52 50 49 49 48 46 44 43 43 43 43 44 46 49 49 49
15 6 4 8 11 7 20 24 32 30 29 33 41 31 46 51 57 55 52 55 57 47 39 42 41 45 47 47 47 46 44 45 45 44 45 44 44 43 43 40 39 39 41 42 46 48 50 50 51
8 5 6 8 15 15 23 22 29 30 33 38 25 42 47 54 54 53 56 56 45 38 36 42 44 47 51 53 53 52 49 46 42 41 40 39 38 37 36 36 36 35 35 37 42 46 46 48 51
10 8 8 4 8 17 23 23 26 32 38 27 43 44 50 50 49 53 49 32 35 36 37 43 48 52 56 58 57 52 47 44 41 37 35 33 33 34 34 33 33 33 32 32 35 38 40 41 42
5 12 7 1 2 16 16 23 29 29 24 45 46 48 48 47 51 46 32 34 35 38 42 46 49 52 56 55 51 40 42 43 42 39 36 34 32 27 25 25 26 27 29 30 30 34 36 37 38
13 15 5 5 3 10 18 23 27 32 39 42 45 47 46 46 42 28 31 33 36 41 43 48 51 56 57 51 42 41 43 44 43 40 38 36 32 29 26 23 23 25 26 27 26 27 30 32 34
11 16 8 7 12 13 14 21 28 29 36 42 42 42 42 42 26 27 29 34 38 40 43 47 51 55 55 43 40 42 42 44 43 40 37 36 32 27 25 23 23 23 23 24 18 18 20 24 28
14 13 13 8 12 12 23 28 29 31 35 34 38 36 36 23 26 27 29 33 36 41 44 48 53 54 46 41 42 41 43 45 43 40 36 34 30 26 24 23 22 21 21 20 19 19 19 20 23
12 19 20 15 17 17 20 28 30 28 31 32 32 33 27 26 26 28 31 34 37 42 46 50 54 53 46 42 44 43 46 42 38 35 34 31 29 26 24 22 21 20 19 18 18 19 19 18 19
Wind_Direction
84 66 84 75 68 63 48 58 72 79 288 291 298 327 335 316 318 323 319 310 307 297 291 298 311 312 319 320 301 275 264 259 254 256 257 258 261 263 266 263 259 257 257 260 264 266 267 271 271
87 76 74 79 61 52 46 34 39 272 298 296 310 337 338 320 321 334 330 321 309 303 301 304 303 307 311 319 313 286 267 260 257 262 264 264 267 268 266 264 263 263 265 268 270 272 272 272 273
100 87 68 67 54 46 43 319 294 293 297 313 327 320 328 356 339 327 328 334 325 311 332 342 330 329 325 314 311 298 287 275 269 267 267 268 267 266 267 268 270 273 274 274 274 272 272 272 270
96 75 64 54 54 48 27 309 305 298 291 294 316 358 349 325 299 283 290 342 303 290 303 333 7 279 286 288 290 282 271 270 272 270 269 269 266 267 268 269 271 273 273 273 272 271 270 271 269
99 99 87 81 69 350 284 289 284 287 285 291 287 301 289 286 299 297 297 293 297 302 8 12 30 9 330 302 289 282 278 273 269 264 261 263 263 264 263 264 265 267 268 269 270 270 268 267 268
103 91 83 91 82 293 310 289 296 290 285 290 306 292 281 297 317 295 193 6 326 314 288 209 191 132 64 322 287 277 271 266 266 266 267 267 267 267 267 267 270 272 273 274 274 272 270 268 267
124 93 80 85 119 286 292 274 279 281 292 293 6 306 302 301 307 281 279 344 319 340 294 288 109 311 237 175 264 263 258 259 258 260 265 268 269 269 271 272 273 273 272 273 273 269 267 265 265
126 109 100 77 257 270 284 265 260 269 285 291 319 303 307 309 291 331 329 340 325 334 343 296 352 312 255 237 193 269 300 306 307 306 294 269 256 261 265 267 268 273 273 273 275 276 274 268 262
148 126 138 179 246 263 267 277 277 274 295 309 309 301 330 332 343 336 339 343 341 345 332 338 325 331 247 234 269 309 285 287 285 285 285 272 267 253 260 264 264 262 268 272 272 273 272 270 268
141 145 170 258 254 260 271 281 289 295 313 305 356 353 334 334 340 340 341 342 338 339 351 350 344 332 6 181 185 355 346 328 323 338 288 262 262 257 249 261 258 258 260 266 272 272 273 273 273
222 88 278 274 257 258 265 272 284 309 310 322 334 334 334 338 340 343 347 348 342 349 344 350 332 330 349 352 346 344 337 337 343 335 337 254 250 263 273 262 260 249 271 268 268 270 272 273 268
167 168 252 269 275 266 270 283 299 305 310 333 332 328 335 334 334 342 347 347 344 344 349 349 344 346 347 342 332 326 325 328 329 333 335 240 237 240 259 290 289 282 283 274 274 266 262 266 263
107 253 267 289 269 283 320 295 325 304 325 331 325 321 322 321 324 330 337 339 354 346 349 346 338 334 331 325 322 319 321 323 329 319 307 297 311 296 279 281 281 275 268 270 276 267 260 259 263
243 235 271 283 283 306 342 347 311 253 290 308 331 312 313 317 322 326 331 342 347 346 340 337 324 309 317 317 316 316 318 319 321 312 301 293 279 276 275 272 268 270 270 266 267 264 265 264 262
36 346 313 286 284 322 327 332 336 319 278 319 294 307 312 319 325 329 334 336 335 331 328 320 317 311 310 311 315 315 313 311 309 309 305 295 291 284 279 276 271 272 271 269 266 264 264 262 261
57 16 4 268 292 303 310 298 310 319 36 354 13 338 338 342 342 343 343 341 336 332 328 323 320 317 316 317 316 317 319 317 313 309 302 298 287 283 284 279 273 269 267 269 270 267 269 269 267
42 16 344 270 282 288 301 304 317 348 18 20 30 1 349 342 340 347 348 341 338 334 330 327 321 318 319 320 320 320 320 317 314 310 302 296 290 286 280 276 275 274 272 271 270 270 268 266 265
16 355 332 289 287 288 300 322 314 300 142 28 25 5 348 339 332 344 346 338 333 332 329 323 320 321 323 320 318 315 309 306 304 301 301 297 290 285 280 275 272 272 270 269 268 264 265 264 261
343 254 334 290 285 297 301 309 344 12 344 323 326 5 350 340 315 317 345 336 336 332 329 323 319 317 316 309 302 298 296 296 295 295 294 292 289 285 282 278 273 269 269 268 266 264 261 260 261
292 188 285 292 288 292 299 320 334 345 345 340 315 301 331 345 355 334 331 326 326 321 316 310 309 310 304 299 300 300 298 296 297 297 296 292 288 286 283 281 278 275 270 267 265 263 260 257 258
147 220 270 258 275 286 309 313 321 313 329 334 335 326 318 340 343 337 330 332 331 333 332 326 318 314 312 311 308 305 304 303 302 301 300 299 295 290 286 281 277 273 270 265 261 261 261 257 256
179 227 234 275 283 290 304 302 301 320 332 333 322 325 295 345 340 338 337 332 334 335 330 332 341 339 338 337 330 322 316 308 304 302 302 300 297 295 292 287 281 275 270 265 262 259 257 258 256
210 319 227 317 318 314 299 304 305 314 314 322 328 337 337 341 336 336 331 333 339 340 353 349 347 344 341 339 336 330 325 322 320 316 311 307 302 297 292 289 284 277 271 266 263 258 257 254 252
261 218 228 12 328 352 331 310 298 306 319 325 334 336 339 335 333 330 331 339 339 347 346 344 346 342 341 338 333 327 326 326 324 321 319 315 311 306 301 296 291 285 278 272 264 260 259 258 255
240 252 271 5 8 306 306 294 297 309 321 338 333 336 332 330 328 331 340 346 347 345 342 343 344 341 340 335 329 331 333 331 328 324 318 312 308 302 299 297 294 290 283 274 267 265 262 261 261
201 273 314 323 335 310 289 294 311 319 327 322 326 328 331 329 332 339 346 349 349 345 345 341 343 340 337 331 335 338 337 334 331 326 320 314 311 313 309 302 297 294 290 282 270 263 263 260 258
253 274 291 270 247 292 296 298 307 313 315 319 325 325 326 328 340 348 339 343 346 346 344 344 342 342 336 337 337 337 337 334 332 333 328 324 317 307 305 306 304 300 304 289 283 272 266 265 264
239 268 264 278 216 285 299 298 303 313 314 315 321 320 324 333 344 340 339 343 345 346 342 342 343 341 339 342 339 338 338 338 338 336 334 335 331 317 311 308 302 299 299 306 287 289 275 270 268
265 280 305 304 260 280 274 283 290 295 299 309 312 318 325 337 334 339 345 347 348 349 346 346 345 345 346 347 345 340 338 337 338 339 338 340 340 338 324 314 309 307 296 291 296 292 287 280 273
258 268 288 293 283 282 263 274 288 309 321 311 316 320 331 332 328 337 346 350 352 352 350 348 350 350 351 351 346 341 341 340 341 345 345 342 347 346 342 337 323 306 303 299 288 284 282 281 281
Height
5898 5900 5904 5904 5908 5904 5904 5906 5906 5904 5899 5893 5891 5898 5899 5895 5891 5891 5884 5882 5882 5880 5878 5877 5876 5875 5874 5872 5872 5872 5873 5873 5873 5873 5873 5872 5873 5873 5874 5875 5875 5876 5876 5877 5877 5878 5879 5879 5880
5899 5902 5906 5905 5906 5902 5905 5907 5903 5906 5899 5891 5894 5898 5894 5892 5889 5887 5882 5878 5877 5876 5874 5873 5873 5872 5872 5871 5871 5871 5871 5871 5872 5872 5871 5872 5872 5872 5872 5872 5873 5873 5873 5874 5875 5875 5876 5876 5876
5901 5902 5903 5904 5901 5901 5905 5907 5906 5901 5902 5898 5899 5898 5896 5891 5885 5882 5879 5874 5874 5873 5872 5871 5871 5871 5870 5869 5868 5867 5867 5868 5869 5868 5868 5869 5869 5869 5869 5869 5870 5870 5870 5870 5872 5872 5872 5872 5872
5902 5902 5903 5903 5902 5904 5907 5907 5904 5900 5902 5901 5898 5902 5894 5885 5874 5869 5876 5873 5871 5870 5869 5866 5864 5865 5865 5866 5865 5865 5864 5863 5863 5863 5863 5863 5864 5865 5865 5865 5865 5866 5866 5866 5866 5867 5867 5867 5866
5906 5908 5906 5903 5905 5914 5913 5909 5901 5897 5895 5895 5897 5895 5888 5885 5877 5876 5874 5874 5870 5867 5864 5865 5864 5865 5866 5866 5864 5863 5861 5860 5859 5857 5857 5858 5859 5860 5860 5861 5861 5862 5861 5861 5861 5861 5861 5861 5861
5909 5909 5906 5905 5911 5915 5911 5902 5892 5890 5886 5884 5892 5890 5881 5878 5883 5872 5865 5868 5864 5865 5861 5856 5860 5859 5857 5859 5858 5858 5857 5856 5855 5855 5855 5854 5855 5856 5857 5857 5857 5857 5857 5857 5857 5857 5857 5856 5856
5910 5909 5908 5907 5906 5913 5907 5901 5890 5886 5887 5887 5888 5887 5881 5878 5883 5875 5872 5870 5866 5863 5861 5864 5861 5862 5856 5846 5852 5850 5850 5851 5851 5852 5853 5853 5853 5852 5852 5852 5852 5852 5851 5851 5851 5851 5850 5850 5849
5910 5909 5907 5908 5912 5911 5906 5899 5894 5892 5886 5886 5892 5884 5879 5878 5878 5876 5871 5870 5865 5864 5864 5863 5865 5864 5860 5854 5843 5850 5855 5857 5857 5857 5856 5849 5845 5846 5846 5846 5845 5845 5845 5844 5844 5844 5844 5844 5843
5908 5905 5906 5911 5911 5908 5904 5900 5895 5888 5889 5881 5876 5877 5881 5878 5867 5876 5868 5868 5867 5865 5861 5862 5863 5855 5849 5847 5841 5849 5851 5851 5853 5850 5846 5845 5845 5840 5841 5841 5841 5839 5840 5840 5839 5838 5839 5839 5838
5905 5904 5907 5910 5912 5909 5904 5898 5895 5894 5891 5883 5854 5870 5877 5878 5879 5873 5870 5865 5862 5861 5854 5851 5854 5847 5837 5841 5832 5841 5847 5846 5846 5842 5837 5834 5839 5837 5835 5835 5830 5829 5829 5832 5833 5832 5832 5834 5834
5904 5902 5908 5906 5906 5906 5899 5897 5894 5896 5890 5883 5878 5876 5875 5878 5874 5871 5867 5863 5857 5853 5855 5852 5847 5841 5839 5833 5825 5839 5841 5844 5841 5833 5824 5822 5833 5835 5832 5824 5825 5822 5821 5824 5824 5825 5825 5826 5827
5903 5905 5906 5906 5902 5900 5897 5895 5895 5895 5894 5892 5889 5885 5881 5875 5872 5866 5861 5858 5857 5855 5852 5850 5845 5840 5838 5839 5840 5839 5838 5839 5837 5830 5827 5824 5826 5827 5826 5818 5814 5784 5812 5816 5815 5817 5817 5817 5817
5900 5904 5902 5901 5897 5898 5898 5895 5897 5894 5891 5892 5890 5886 5881 5880 5877 5873 5868 5863 5856 5854 5858 5854 5850 5846 5845 5839 5835 5831 5826 5825 5827 5826 5826 5824 5820 5818 5818 5813 5810 5811 5811 5809 5809 5808 5807 5808 5808
5900 5902 5900 5899 5896 5897 5900 5899 5887 5888 5892 5889 5888 5888 5883 5879 5875 5871 5868 5865 5862 5859 5854 5853 5852 5848 5840 5837 5832 5826 5825 5820 5818 5820 5818 5817 5814 5811 5809 5808 5806 5802 5800 5802 5801 5800 5798 5799 5801
5900 5901 5900 5901 5892 5894 5895 5895 5891 5897 5894 5889 5882 5884 5882 5878 5873 5870 5866 5860 5857 5853 5850 5847 5843 5840 5835 5828 5822 5819 5815 5817 5813 5808 5806 5803 5802 5802 5802 5801 5798 5790 5787 5791 5789 5789 5787 5789 5792
5897 5899 5897 5900 5893 5890 5890 5889 5891 5890 5891 5888 5880 5880 5880 5877 5874 5867 5863 5857 5852 5848 5844 5841 5837 5831 5825 5821 5814 5809 5805 5799 5799 5800 5797 5793 5792 5791 5790 5790 5788 5784 5783 5782 5780 5779 5777 5777 5779
5894 5896 5897 5897 5896 5898 5893 5885 5888 5892 5889 5885 5874 5878 5878 5874 5870 5865 5860 5856 5851 5845 5838 5833 5828 5823 5819 5814 5808 5801 5796 5794 5786 5785 5786 5786 5784 5781 5780 5779 5777 5776 5774 5772 5770 5769 5767 5768 5768
5894 5894 5898 5897 5895 5895 5894 5880 5880 5874 5875 5876 5873 5874 5874 5870 5867 5862 5854 5851 5847 5841 5834 5827 5819 5815 5809 5805 5801 5797 5791 5782 5780 5774 5772 5772 5770 5771 5771 5768 5766 5764 5763 5762 5759 5758 5758 5757 5757
5896 5902 5900 5898 5896 5894 5892 5889 5882 5862 5878 5869 5872 5863 5863 5870 5861 5858 5849 5849 5842 5835 5828 5819 5811 5808 5803 5797 5791 5785 5777 5772 5767 5763 5759 5757 5754 5753 5753 5752 5751 5749 5747 5747 5745 5745 5745 5746 5743
5900 5903 5900 5893 5893 5891 5889 5888 5882 5875 5871 5874 5868 5866 5865 5865 5862 5853 5847 5844 5838 5832 5827 5818 5809 5800 5793 5783 5778 5772 5764 5755 5750 5747 5742 5740 5740 5738 5736 5733 5732 5731 5733 5732 5732 5731 5731 5731 5730
5901 5902 5901 5901 5895 5891 5886 5882 5883 5881 5879 5876 5870 5865 5863 5859 5853 5844 5839 5829 5823 5817 5810 5802 5794 5786 5776 5767 5758 5751 5746 5741 5735 5729 5724 5718 5715 5714 5714 5715 5715 5714 5714 5715 5716 5716 5716 5716 5716
5897 5896 5897 5896 5894 5890 5886 5883 5878 5876 5873 5871 5867 5861 5851 5844 5841 5834 5828 5820 5815 5807 5799 5790 5781 5773 5765 5755 5746 5736 5728 5720 5715 5710 5707 5702 5698 5693 5690 5691 5693 5693 5694 5695 5696 5697 5699 5700 5703
5894 5894 5893 5893 5891 5887 5884 5880 5875 5874 5871 5869 5863 5855 5849 5842 5836 5830 5823 5816 5807 5801 5791 5784 5777 5769 5760 5751 5741 5732 5722 5712 5705 5699 5694 5690 5684 5682 5679 5676 5675 5675 5675 5676 5677 5678 5681 5683 5686
5892 5893 5891 5889 5886 5885 5880 5878 5871 5871 5870 5865 5859 5854 5845 5841 5833 5826 5818 5811 5803 5797 5791 5783 5774 5765 5755 5744 5734 5724 5715 5708 5701 5693 5686 5679 5675 5670 5666 5664 5663 5662 5661 5660 5661 5661 5664 5666 5667
5889 5888 5887 5886 5883 5882 5878 5875 5869 5867 5864 5858 5854 5850 5846 5838 5831 5824 5816 5808 5802 5795 5787 5779 5770 5758 5747 5736 5726 5716 5707 5699 5692 5687 5679 5673 5668 5662 5658 5655 5652 5651 5651 5651 5650 5649 5650 5653 5654
5886 5885 5884 5883 5884 5879 5877 5872 5871 5864 5860 5856 5851 5848 5842 5833 5827 5821 5813 5807 5800 5792 5784 5775 5766 5755 5743 5731 5720 5711 5703 5695 5687 5679 5672 5666 5660 5655 5651 5648 5646 5643 5640 5638 5638 5639 5640 5642 5643
5884 5882 5883 5882 5882 5878 5874 5871 5866 5864 5858 5853 5849 5844 5838 5833 5827 5819 5812 5806 5799 5791 5782 5771 5761 5750 5738 5725 5714 5706 5698 5690 5681 5672 5664 5657 5651 5645 5643 5640 5638 5635 5632 5630 5629 5628 5629 5631 5633
5882 5879 5880 5880 5879 5875 5871 5868 5866 5864 5857 5853 5849 5843 5836 5831 5826 5820 5813 5806 5798 5790 5780 5769 5757 5745 5732 5721 5711 5703 5693 5684 5675 5666 5657 5649 5642 5637 5634 5631 5630 5627 5625 5623 5623 5622 5622 5623 5624
5877 5876 5876 5879 5877 5877 5870 5866 5864 5864 5860 5855 5849 5843 5837 5831 5825 5819 5812 5805 5797 5788 5778 5768 5755 5741 5727 5718 5708 5698 5688 5678 5668 5659 5651 5644 5637 5632 5627 5624 5622 5621 5619 5618 5617 5617 5617 5617 5617
5875 5873 5872 5873 5874 5873 5868 5864 5861 5858 5855 5851 5845 5838 5834 5829 5822 5817 5810 5803 5795 5787 5778 5766 5753 5738 5726 5716 5706 5696 5685 5675 5665 5657 5648 5640 5634 5629 5624 5619 5616 5614 5613 5612 5612 5612 5611 5611 5611